COMPLETED DISPATCHED CALLS FOR SERVICE

Welcome to the Jacksonville Sheriff’s Office Completed Dispatched Calls for Service webpage. This page displays calls for service made to the Jacksonville Sheriff's Office that have recently been completed. The data on this page is refreshed automatically.

This information is not intended to be used as official crime data. This program does not provide information about all crimes, and excludes specific incidents such as sexual assaults and child abuse.

Disclaimer: The Jacksonville Sheriff's Office makes every effort to produce and publish current and accurate information. No warranties, expressed or implied, are provided for the data herein, its use, or its interpretation. The services provided are for informational purposes only and should not be relied on for any type of legal action.

Last refreshed 10/29 03:23:58

Incident # Dispatched Block Address Signal Call Description  
202000684690 10-29 01:39 7800 POINT MEADOWS DR 63 DISPUTE
202000684760 10-29 01:16 14000 BEACH 1050 TRAFFIC STOP
202082019970 10-29 01:14 1300 ATLANTIC BLVD 1050 TRAFFIC STOP
202000684758 10-29 01:14 1900 ATLANTIC BLVD 13 SUSPICIOUS PERSON
202000684757 10-29 01:13 DENNIS ST / STOCKTON ST 1050 TRAFFIC STOP
202000684616 10-29 01:10 7700 HARE AVE 63 DISPUTE
202000684749 10-29 01:08 200 COAST LINE DR E 63 DISPUTE
202000684737 10-29 01:01 7000 AUSTRALIAN AVE 63 DISPUTE
202000684739 10-29 00:58 MYRTLE AVE N / KINGS RD 1050 TRAFFIC STOP
202000684731 10-29 00:56 100 UNION ST W 60 SUICIDE OR ATTEMPT
202000684734 10-29 00:55 BEACH/FALCON RIDGE 1050 TRAFFIC STOP
202000684710 10-29 00:52 3600 RING LN 22 DOMESTIC
202000684693 10-29 00:52 100 FRANKLIN AVE 2 22 DOMESTIC DISTURBANCE
202000684724 10-29 00:49 BLANDING BLVD / 103RD ST 1050 TRAFFIC STOP
202000684581 10-29 00:49 2900 JUSTINA RD 27 MENTALLY ILL PERSON
202000684722 10-29 00:49 OLD KINGS RD S / OXFORD FOREST DR 1050 TRAFFIC STOP
202082019969 10-29 00:46 1000 MAIN ST 1050 TRAFFIC STOP
202000684719 10-29 00:46 BAYMEADOWS RD / OLD KINGS RD S 1050 TRAFFIC STOP
202000684708 10-29 00:46 3700 TOLEDO RD 63 DISPUTE
202000684677 10-29 00:42 200 NEWS ST 64 NOISE COMPLAINT
202000684686 10-29 00:38 8300 DAMES POINT CROSSING BLVD 13 SUSPICIOUS PERSON
202000684706 10-29 00:37 LENOX AVE / OWEN AVE 13 SUSPICIOUS PERSON
202000012990 10-29 00:33 12200 ALUMNI DR 96 ASSIST MOTORIST
202000684703 10-29 00:33 CECIL COMMERCE CENTER PKWY OFF RAMP / NORMANDY BLVD 76 ASSIST OTHER AGENCY
202000684661 10-29 00:30 2500 SR A1A 22 DOMESTIC
202000684673 10-29 00:29 13900 MYSTIC LN 64 NOISE COMPLAINT
202000684603 10-29 00:28 1700 LEON RD 0 63 ARMED DISPUTE
202000684700 10-29 00:27 MARTIN LUTHER KING JR PKWY / DIVISION ST 1050 TRAFFIC STOP
202000684674 10-29 00:25 10100 NEW BERLIN RD 13 SUSPICIOUS PERSON
202000684696 10-29 00:25 LENOX AVE / DRUID ST 13 SUSPICIOUS PERSON
202000684680 10-29 00:24 10600 OLD ST AUGUSTINE RD 63 DISPUTE
202000684691 10-29 00:23 3400 PHILIPS HWY 13 SUSPICIOUS PERSON
202000684692 10-29 00:22 4600 ASTRAL ST 13 SUSPICIOUS PERSON
202000684689 10-29 00:21 4600 LAMBING RD 13 SUSPICIOUS PERSON
202000684688 10-29 00:21 2600 IGNITION DR 33 DISCHARGING OF FIREARM
202000684671 10-29 00:20 7900 103RD ST 63 DISPUTE
202000684685 10-29 00:19 EDISON AVE / THOMPSON ST 13 SUSPICIOUS PERSON
202000684684 10-29 00:17 10200 BEAVER ST W 1050 TRAFFIC STOP
202000684681 10-29 00:16 8700 BUTTERCUP ST 1050 TRAFFIC STOP
202000684666 10-29 00:14 UNIVERSITY BLVD N / W ARLXEXIT S UNIV RP 27 MENTALLY ILL PERSON
202000684618 10-29 00:12 7800 POINT MEADOWS DR 63 DISPUTE
202000684668 10-29 00:05 5300 110TH ST 13 SUSPICIOUS PERSON
202000684649 10-29 00:04 2400 TOWNSQUARE DR 13 SUSPICIOUS PERSON
202000684659 10-29 00:03 6800 GOLDILOCKS LN 64 NOISE COMPLAINT
202000684641 10-29 00:03 5300 SPRINGFIELD BLVD 19 ANIMAL INVESTIGATION
202000684669 10-29 00:01 MCDUFF AVE N / MCQUADE ST 13 SUSPICIOUS PERSON
202000684665 10-28 23:59 PHILIPS HWY / BAYMEADOWS WAY 1050 TRAFFIC STOP
202000684583 10-28 23:59 7700 HARE AVE 88 ASSAULT
202000684664 10-28 23:58 10800 HARTS RD 1050 TRAFFIC STOP
202000684635 10-28 23:58 3600 BUCKSKIN TRL W 64 NOISE COMPLAINT
202000684660 10-28 23:58 4000 SUNBEAM RD 22 DOMESTIC
202000684657 10-28 23:53 4800 POLARIS ST 63 DISPUTE
202000684656 10-28 23:51 1100 AIRPORT RD 50 FOUND/ABANDONED PROPERTY
202000684655 10-28 23:51 YELLOW BLUFF RD / NEW BERLIN RD 16 ROAD OBSTRUCTION
202000684544 10-28 23:48 7500 ARLINGTON EXPY 64 NOISE COMPLAINT
202000684632 10-28 23:47 1400 JEFFERSON ST N 0 13 ARMED SUSPICIOUS PERSON
202000684648 10-28 23:46 ACME ST / JASPER AVE 1050 TRAFFIC STOP
202000684647 10-28 23:44 BEAVER ST W / MYRTLE AVE N 1050 TRAFFIC STOP
202000684546 10-28 23:42 2000 PEARL ST N 96 ASSIST MOTORIST
202000684637 10-28 23:41 7800 103RD ST 76 ASSIST OTHER AGENCY
202000684634 10-28 23:39 CLAY ST / UNION ST W 76 ASSIST OTHER AGENCY
202000684588 10-28 23:39 13900 FISH EAGLE DR E 63 DISPUTE
202000684636 10-28 23:39 9500 WATER STREET 13 SUSPICIOUS PERSON
202000684633 10-28 23:37 9500 ARLINGTON EXPWY 86 LOST PROPERTY
202000684615 10-28 23:37 4600 PEARL ST N 20 PROWLER
202000684627 10-28 23:36 500 STOCKTON ST 2 IMPAIRED/INTOXICATED
202000684631 10-28 23:36 PHILIPS HWY / AVENUES WALK BLVD 1050 TRAFFIC STOP
202000684628 10-28 23:33 RESTLAWN DR / VAN GUNDY RD 1050 TRAFFIC STOP
202000684626 10-28 23:31 30TH ST W / STUART ST 1050 TRAFFIC STOP
202000684577 10-28 23:28 6900 MORSE AVE 63 DISPUTE
202000684606 10-28 23:26 700 EDISON AVE 13 SUSPICIOUS PERSON
202000684620 10-28 23:26 4200 ROOSEVELT BLVD 96 ASSIST MOTORIST
202000684617 10-28 23:25 MAIN ST N / EASTPORT RD 1050 TRAFFIC STOP
202000684614 10-28 23:24 3600 UNIVERSITY BLVD S 54 ILLEGALLY PARKED CAR
202000684613 10-28 23:23 UNIVERSITY BLVD W / RICHARD ST 1050 TRAFFIC STOP
202000684608 10-28 23:18 2200 4TH AVE 76 ASSIST OTHER AGENCY
202000684609 10-28 23:17 8TH ST E / EVERGREEN AVE 1050 TRAFFIC STOP
202000684604 10-28 23:17 2500 SR A1A 61 FIGHT
202000684011 10-28 23:16 I295 S OFF RAMP / MONUMENT RD 4 AUTO CRASH
202000684044 10-28 23:16 I295 S ON RAMP / MONUMENT RD 4 AUTO CRASH
202000684596 10-28 23:16 4200 ROOSEVELT BLVD 96 ASSIST MOTORIST
202000684552 10-28 23:15 7900 BLANDING BLVD 63 DISPUTE
202000684601 10-28 23:13 1400 RIVERPLACE BLVD 13 SUSPICIOUS PERSON
202000684600 10-28 23:11 PARK ST / LANE AVE S 1050 TRAFFIC STOP
202000684599 10-28 23:08 1000 GOLFAIR BLVD 3388 DISCHARGING FIREARM AT PERSON
202000684598 10-28 23:06 9500 ATLANTIC BLVD 1050 TRAFFIC STOP
202000684519 10-28 23:05 5300 SPRINGFIELD BLVD 19 ANIMAL INVESTIGATION
202000684592 10-28 23:04 8TH ST E / MAIN ST N 1050 TRAFFIC STOP
202000684590 10-28 23:04 6100 MERCER CIR E 64 NOISE COMPLAINT
202000684468 10-28 23:03 5200 LA VENTURA CT E 64 NOISE COMPLAINT
202000684589 10-28 23:03 8800 LAKE PLACID DRIVE E 13 SUSPICIOUS PERSON
202000684550 10-28 23:03 7900 BLANDING BLVD 2 63 DISPUTE IMPAIRED/INTOXICATED
202000684582 10-28 23:01 5500 CONNIE JEAN RD 22 DOMESTIC
202000684561 10-28 23:01 1300 FLORIDA AVE 0 63 ARMED DISPUTE
202000684585 10-28 23:01 MLK/FAIRFAX 1050 TRAFFIC STOP
202000684571 10-28 22:57 4800 POLARIS ST 63 DISPUTE
202000684558 10-28 22:56 1300 LACLEDE AVE 27 MENTALLY ILL PERSON
202000684563 10-28 22:56 11700 PALM LAKE DR 22 DOMESTIC
202000684485 10-28 22:55 13400 BEACH BLVD 4 AUTO CRASH
202000684553 10-28 22:54 4500 LYNCH RD 63 DISPUTE
202000684569 10-28 22:50 1700 ACADEMY ST 2 22 DOMESTIC DISTURBANCE
202000684527 10-28 22:50 300 4TH ST W 13 SUSPICIOUS PERSON
202000684568 10-28 22:49 LANE AVE S / LENOX AVE 1050 TRAFFIC STOP
202000684567 10-28 22:49 DOOLITTLE RD / ELLIS RD N 1050 TRAFFIC STOP
202000684566 10-28 22:48 7700 TIMBERLIN PARK BLVD 54 ILLEGALLY PARKED CAR
202000684357 10-28 22:47 SOUTHSIDE BLVD / ATLANTIC BLVD 78 FALSE PERSONATION
202000684562 10-28 22:47 PARIS AVE / TALLADEGA RD 64 NOISE COMPLAINT
202000684556 10-28 22:47 6100 BAGLEY RD 13 SUSPICIOUS PERSON
202000684560 10-28 22:47 UNIVERSITY BLVD N / MERRILL RD 16 ROAD OBSTRUCTION
202000684559 10-28 22:45 8000 PARENTAL CIR 13 SUSPICIOUS PERSON
202000684536 10-28 22:36 7200 NORMANDY BLVD 10R VEHICLE THEFT RECOVERY
202000684545 10-28 22:35 BLANDING BLVD / WILSON BLVD 79 OBSCENE / THREAT CALL OR LETTER
202000684522 10-28 22:33 2100 YULEE ST 13 SUSPICIOUS PERSON
202000684524 10-28 22:32 500 ELLIS RD N 63 DISPUTE
202000684542 10-28 22:32 100 LAWTON AVE 21RP BURGLARY RESIDENCE IN PROGRESS
202000684543 10-28 22:32 BLAND/105TH 1050 TRAFFIC STOP
202000684540 10-28 22:32 2900 BETHEL CT 56 JUVENILE COMPLAINT
202000684541 10-28 22:31 5600 HILLMAN DRIVE 1050 TRAFFIC STOP
202000684528 10-28 22:31 900 ALDERSIDE ST 88 ASSAULT
202000684537 10-28 22:30 700 N LIBERTY 73 DRUG INVESTIGATION
202000684535 10-28 22:28 I95 S OFF RAMP / UNIVERSITY BLVD W 1050 TRAFFIC STOP
202000684533 10-28 22:27 100 2ND AVE N 76 ASSIST OTHER AGENCY
202000684531 10-28 22:26 JTB / BONNEVAL RD 1050 TRAFFIC STOP
202000684530 10-28 22:25 300 BELFORT ST 63 DISPUTE
202000684523 10-28 22:25 10000 SAN JOSE BLVD 2 63 DISPUTE IMPAIRED/INTOXICATED
202000684508 10-28 22:22 3100 ST JOHNS BLUFF RD S 0 63 ARMED DISPUTE
202000684529 10-28 22:22 11100 BEAVER ST W 6388 DISPUTE WITH ASSAULT
202000684451 10-28 22:22 3000 CORONET LN 63 DISPUTE
202000684518 10-28 22:19 3900 DISTANT MOON CT 13 SUSPICIOUS PERSON
202000684521 10-28 22:15 1100 AIRPORT RD 13 SUSPICIOUS PERSON
202000684517 10-28 22:13 ARLINGTON XY SERVICE RD / NORTH ST 1050 TRAFFIC STOP
202000684515 10-28 22:13 100 UNION ST W 27 MENTALLY ILL PERSON
202000684474 10-28 22:11 700 ARIES RD W 22 DOMESTIC
202000684513 10-28 22:11 11900 PULASKI RD 12 RECKLESS DRIVER
202000684509 10-28 22:09 5500 HILLMAN DR 37 UNVERIFIED 911 CALL
202000684420 10-28 22:09 500 ACME ST 4 53 TRAFFIC CRASH PERSON INJURED
202000684483 10-28 22:08 8600 GATE PKWY W 13 SUSPICIOUS PERSON
202000684506 10-28 22:08 1200 32ND ST W 23CJ ROBBERY CARJACKING JUST OCCURRED
202000684505 10-28 22:08 700 N LIBERTY 73 DRUG INVESTIGATION
202000684361 10-28 22:07 1700 EMBASSY DR 88 ASSAULT
202000684492 10-28 22:07 3600 KIRKPATRICK CIR 63 DISPUTE
202000684498 10-28 22:07 SOUTEL DR / MONCRIEF RD W 6388 DISPUTE WITH ASSAULT
202000684504 10-28 22:06 ERLINE DR / LEONARD CIR W 1050 TRAFFIC STOP
202000684501 10-28 22:06 BEAVER ST W / CHAFFEE RD N 13 SUSPICIOUS PERSON
202000684502 10-28 22:05 6300 COMMERCE ST 1050 TRAFFIC STOP
202000684500 10-28 22:04 ARLINGTON EXPY / N UNIVEXIT N ARLX RP 1050 TRAFFIC STOP
202000684488 10-28 22:04 1900 44TH ST W 63 DISPUTE
202000684443 10-28 22:03 1100 25TH ST W 9 THEFT
202000684384 10-28 22:03 5800 EDENFIELD RD 63 DISPUTE
202000684490 10-28 22:00 1200 BEACON POINT DR 22 DOMESTIC
202000684496 10-28 21:59 BEACH BLVD / SAN PABLO RD S 1050 TRAFFIC STOP
202000684465 10-28 21:59 3400 AYRSHIRE ST 21R BURGLARY RESIDENCE
202000684494 10-28 21:58 PHOENIX AVE / MLKEXIT PHOENIX RP 1050 TRAFFIC STOP
202000684425 10-28 21:55 1100 AKE LN 63 DISPUTE
202000684442 10-28 21:55 100 BAY ST E 13 SUSPICIOUS PERSON
202000684493 10-28 21:54 25TH ST W / WILSON ST 13 SUSPICIOUS PERSON
202000684246 10-28 21:53 4800 BELFORT RD 10R VEHICLE THEFT RECOVERY
202082019962 10-28 21:52 1100 ATLANTIC BLVD 1050 TRAFFIC STOP
202000684484 10-28 21:51 7000 ATLANTIC BLVD 4 AUTO CRASH
202000684487 10-28 21:50 HARTSFIELD RD / MERRILL RD 1050 TRAFFIC STOP
202000684000 10-28 21:50 5000 CLEVELAND RD 33 DISCHARGING OF FIREARM
202000684481 10-28 21:49 9100 ADAMS AVE 0 88J ARMED ASSAULT JUST OCCURRED
202000684463 10-28 21:49 7500 GINGER TEA TRL W 63 DISPUTE
202000684478 10-28 21:48 1700 HODGES BLVD 76 ASSIST OTHER AGENCY
202000684482 10-28 21:48 8200 BEACH BLVD 1050 TRAFFIC STOP
202000684480 10-28 21:48 3200 EMERSON ST 27 MENTALLY ILL PERSON
202000684479 10-28 21:47 BEACH BLVD / ST JOHNS BLUFF RD S 1050 TRAFFIC STOP
202000684476 10-28 21:47 MCDUFF AVE N / LOWELL AVE 2 IMPAIRED/INTOXICATED
202000684254 10-28 21:47 3RD ST E / FLORIDA AVE 63 DISPUTE
202000684473 10-28 21:46 100 UNION ST W 76 ASSIST OTHER AGENCY
202000684475 10-28 21:46 BEACH BLVD / KILLARNEY DR 1050 TRAFFIC STOP
202000684472 10-28 21:45 118TH ST / ORTEGA FARMS BLVD 4 53 TRAFFIC CRASH PERSON INJURED
202000684433 10-28 21:45 10100 GENI HILL CIR N 64 NOISE COMPLAINT
202000684471 10-28 21:45 4300 TRENTON DR N 63 DISPUTE
202000684470 10-28 21:42 13700 BEACH 1050 TRAFFIC STOP
202000684469 10-28 21:41 PULASKI RD / I295 S OFF RAMP 1050 TRAFFIC STOP
202000684332 10-28 21:38 8600 BLANDING BLVD 22 DOMESTIC
202000684461 10-28 21:37 5100 UNIVERSITY BLVD W 2288 DOMESTIC DISPUTE WITH/ASSAULT
202000684462 10-28 21:36 7700 TIMBERLIN PARK BLVD 54 ILLEGALLY PARKED CAR
202000684460 10-28 21:36 11600 PULASKI RD 1050 TRAFFIC STOP
202000684459 10-28 21:36 BCHEXIT SS RP / SOUTHSIDE BLVD 1050 TRAFFIC STOP
202000684320 10-28 21:35 4200 RIPKEN CIR E 9 THEFT
202000684456 10-28 21:34 ARLXEXIT E STATE RP / LIBERTY ST N 1050 TRAFFIC STOP
202000684455 10-28 21:33 1ST/MCDUFF 1050 TRAFFIC STOP
202000684449 10-28 21:33 11800 BEACH BLVD 1 IMPAIRED/DRUNK DRIVER
202000684448 10-28 21:31 APPROX LOC:3780 UNIVERSITY CLUB BLVD 76 ASSIST OTHER AGENCY
202000684453 10-28 21:31 BEACH BLVD / HUFFMAN BLVD 1050 TRAFFIC STOP
202082019961 10-28 21:30 MAIN ST / LEVY RD 1050 TRAFFIC STOP
202000684445 10-28 21:27 SAN JUAN AVE / JAMMES RD 1050 TRAFFIC STOP
202000684439 10-28 21:27 NEW BERLIN RD / STARRATT RD 12 RECKLESS DRIVER
202000684444 10-28 21:26 BEACH BLVD / ST JOHNS BLUFF RD S 1050 TRAFFIC STOP
202000684430 10-28 21:23 1500 27TH ST W 9 THEFT
202000684438 10-28 21:23 ROGERO RD / GAMEWELL RD 1050 TRAFFIC STOP
202000684437 10-28 21:22 15TH ST W / PROSPECT ST 1050 TRAFFIC STOP
202000684409 10-28 21:22 3700 WAYLAND ST 13 SUSPICIOUS PERSON
202000684417 10-28 21:21 1000 RIVIERA ST 4 AUTO CRASH
202000684429 10-28 21:21 7900 PASCHAL ST 27 MENTALLY ILL PERSON
202000684434 10-28 21:21 ARLINGTON XY SERVICE RD / ROGERO RD 1050 TRAFFIC STOP
202000684431 10-28 21:20 7900 ARLINGTON EXPY 2 IMPAIRED/INTOXICATED
202000684232 10-28 21:20 4400 HODGES BLVD 64 NOISE COMPLAINT
202000684352 10-28 21:20 2400 COUNTY DOCK RD 64 NOISE COMPLAINT
202000684408 10-28 21:15 2900 REMINGTON ST 9 THEFT
202000684373 10-28 21:13 5300 JAMMES RD 3 HIT AND RUN CRASH
202000684413 10-28 21:12 5300 SEABOARD AVE 63 DISPUTE
202000684367 10-28 21:11 7000 COLLINS RD 3 HIT AND RUN CRASH
202000684403 10-28 21:09 2100 FIRESTONE RD 63 DISPUTE
202000684415 10-28 21:08 8100 WYOMING ST 76 ASSIST OTHER AGENCY
202000684412 10-28 21:08 MERRILL RD / UNIVERSITY BLVD N 18 PERSON SHOT
202000684394 10-28 21:07 3600 COPPER CIR E 63 DISPUTE
202000684411 10-28 21:06 BEACH/ FALCON RIDGE 1050 TRAFFIC STOP
202000684340 10-28 21:06 2600 LANE AVE S 16 ROAD OBSTRUCTION
202000684410 10-28 21:05 JTB E OFF RAMP / SAN PABLO RD S 1050 TRAFFIC STOP
202000684333 10-28 21:05 9300 103RD ST 6388 DISPUTE WITH ASSAULT
202000684407 10-28 21:04 4200 MONCRIEF RD W 22 DOMESTIC
202000684400 10-28 21:03 400 MONUMENT RD 56 JUVENILE COMPLAINT
202000684402 10-28 21:03 1100 AIRPORT RD 60 SUICIDE OR ATTEMPT
202000684398 10-28 21:01 800 ST CLAIR ST 63 DISPUTE
202000684401 10-28 21:01 I95 S OFF RAMP / JTB E ON RAMP 50 FOUND/ABANDONED PROPERTY
202000684393 10-28 21:00 2600 SR A1A 2288 DOMESTIC DISPUTE WITH/ASSAULT
202000684391 10-28 20:59 12500 IVY BELLFLOWER DR 0 13 ARMED SUSPICIOUS PERSON
202082019959 10-28 20:59 PLAZA / MAYPORT RD 1050 TRAFFIC STOP
202000684389 10-28 20:58 7600 OLD PLANK RD 1066 CANCEL
202000684383 10-28 20:58 103RD ST / OLD MIDDLEBURG RD N 12 RECKLESS DRIVER
202000684392 10-28 20:58 3400 SALAND WAY 60 SUICIDE OR ATTEMPT
202000684390 10-28 20:57 6000 POWERS AVE 1050 TRAFFIC STOP
202000684385 10-28 20:57 14000 CLARIDGE RD N 60 SUICIDE OR ATTEMPT
202000684312 10-28 20:56 6900 OLD KINGS RD S 63 DISPUTE
202000684386 10-28 20:56 ERIE AVE / BROADWAY AVE 1050 TRAFFIC STOP
202000684378 10-28 20:53 GOLFAIR BLVD / I95 N OFF RAMP 1050 TRAFFIC STOP
202000684363 10-28 20:50 5600 BARNHILL DR 64 NOISE COMPLAINT
202000684370 10-28 20:50 1200 LANE AVE S 27 MENTALLY ILL PERSON
202000684368 10-28 20:50 400 CENTURY 21 DR 64 NOISE COMPLAINT
202000684371 10-28 20:50 SPEARING ST / BLODGETTS LN 1050 TRAFFIC STOP
202000684303 10-28 20:50 NEW BERLIN RD / STARRATT RD 64 NOISE COMPLAINT
202000684356 10-28 20:49 200 STATE ST E 63 DISPUTE
202000684366 10-28 20:48 3400 BROADWAY AVE 13 SUSPICIOUS PERSON
202000684362 10-28 20:47 UNIVERSITY BLVD W / POWERS AVE 1050 TRAFFIC STOP
202000684360 10-28 20:46 BEACH BLVD / TAMAYA BLVD 1050 TRAFFIC STOP
202000684355 10-28 20:44 BEACH BLVD / PARENTAL HOME RD 1050 TRAFFIC STOP
202000684353 10-28 20:43 DUNN AVE / WINGATE RD N 1050 TRAFFIC STOP
202000684349 10-28 20:41 18700 BEAVER ST W 63 DISPUTE
202000684348 10-28 20:41 10200 SHOPS LN 2288 DOMESTIC DISPUTE WITH/ASSAULT
202000684154 10-28 20:41 13700 SUTTON PARK DR N 2 22 DOMESTIC DISTURBANCE
202000684346 10-28 20:40 4600 PHILIPS HWY 1050 TRAFFIC STOP
202000684345 10-28 20:40 ERIE AVE / BROADWAY AVE 1050 TRAFFIC STOP
202000684338 10-28 20:37 MLK NB / PHOENIX AVE OFF RAMP 96 ASSIST MOTORIST
202000684324 10-28 20:36 13900 HOLLINGS ST 5388 ASSAULT INVOLVING INJURY
202000684336 10-28 20:36 1600 19TH ST W 1050 TRAFFIC STOP
202000684236 10-28 20:36 8400 RUCKMAN AVE 76 ASSIST OTHER AGENCY
202000684309 10-28 20:34 10600 LEM TURNER RD 63 DISPUTE
202000684334 10-28 20:34 BEACH BLVD / EVE DR E 1050 TRAFFIC STOP
202000684274 10-28 20:34 800 29TH ST W 64 NOISE COMPLAINT
202000684323 10-28 20:34 2800 LENOX AVE 22 DOMESTIC
202000684331 10-28 20:33 4500 PHILIPS HWY 1050 TRAFFIC STOP
202000684288 10-28 20:32 7900 BLANDING BLVD 2 63 DISPUTE IMPAIRED/INTOXICATED
202000684330 10-28 20:32 HARTLEY RD / SAN JOSE BLVD 4 AUTO CRASH
202000684296 10-28 20:31 9500 CROSSHILL BLVD 9 THEFT
202000684328 10-28 20:30 8TH ST E / IONIA ST 1050 TRAFFIC STOP
202000684327 10-28 20:30 US 301/US90 96 ASSIST MOTORIST
202000684326 10-28 20:30 8TH ST E / BRACKLAND ST 1050 TRAFFIC STOP
202000684088 10-28 20:29 7100 KARENITA DR 63 DISPUTE
202000684047 10-28 20:29 5000 ANDREWS ST 22 DOMESTIC
202000684279 10-28 20:29 ADAMS ST W / I95 ON RAMP 4 AUTO CRASH
202000684322 10-28 20:29 6900 CHAMPLAIN RD 1050 TRAFFIC STOP
202000684319 10-28 20:27 BRIDIER ST / JESSIE ST 1050 TRAFFIC STOP
202000684267 10-28 20:27 200 WILLOW BRANCH AVE 22 DOMESTIC
202000684317 10-28 20:27 1600 BARTRAM RD 26EB PERSON WITH EXTREME BEHAVIOR
202000684264 10-28 20:27 200 STATE ST E 63 DISPUTE
202000684315 10-28 20:26 3600 UNIVERSITY BLVD S 73 DRUG INVESTIGATION
202000684217 10-28 20:25 5300 SOUTEL DR 9J THEFT JUST OCCURRED
202000684313 10-28 20:24 1700 ROWE AVE 1050 TRAFFIC STOP
202000684263 10-28 20:23 ELSINORE DR / GORHAM ST 13 SUSPICIOUS PERSON
202000684120 10-28 20:23 11900 BEACH BLVD 9 THEFT
202000684291 10-28 20:22 11000 SKY LARK DR 22 DOMESTIC
202000684304 10-28 20:21 5000 QUAN DR 2 22 DOMESTIC DISTURBANCE
202000684283 10-28 20:20 2100 EMERSON ST 63 DISPUTE
202000684268 10-28 20:20 11700 BISCAYNE BLVD 22 DOMESTIC
202000684190 10-28 20:19 7500 103RD ST 4 AUTO CRASH
202000684209 10-28 20:19 11400 CARSON LAKE DR 63 DISPUTE
202000684300 10-28 20:16 1600 DUNN AVE 1050 TRAFFIC STOP
202000684299 10-28 20:16 A PHILIP RANDOLPH BLVD / 1ST ST E 1050 TRAFFIC STOP
202000684295 10-28 20:15 MONCRIEF RD / AVENUE B 13 SUSPICIOUS PERSON
202000684294 10-28 20:15 5500 AMAZON AVE 3388 DISCHARGING FIREARM AT PERSON
202000684298 10-28 20:15 MONROE ST W / LEE ST N 1050 TRAFFIC STOP
202000684293 10-28 20:12 2000 ATLANTIC BLVD 38 TRAFFIC ASSIGNMENT
202000684289 10-28 20:11 110TH ST / COMMODORE DR 1050 TRAFFIC STOP
202000684287 10-28 20:11 I10/CHA 1050 TRAFFIC STOP
202000684286 10-28 20:11 LAMBING RD / FIRETOWER RD 12 RECKLESS DRIVER
202000684285 10-28 20:10 3000 FAIRFAX ST 13 SUSPICIOUS PERSON
202000684284 10-28 20:10 21ST ST E / BENNETT ST 1050 TRAFFIC STOP
202000684282 10-28 20:10 5000 NORMANDY 13 SUSPICIOUS PERSON
202000684281 10-28 20:08 HART EXPY / S UNIVEXIT HARTX RP 1050 TRAFFIC STOP
202000684272 10-28 20:08 8000 PARENTAL CIR 27 MENTALLY ILL PERSON
202000684280 10-28 20:08 SOUTHSIDE BLVD / TOUCHTON RD 1050 TRAFFIC STOP
202000684278 10-28 20:08 1700 LEON RD 33 DISCHARGING OF FIREARM
202000684275 10-28 20:05 OLD MIDDLEBURG RD N / FIRETOWER RD 1050 TRAFFIC STOP
202000684273 10-28 20:04 MARTIN LUTHER KING JR PKWY / I95 N OFF RAMP 1050 TRAFFIC STOP
202000684259 10-28 20:04 4500 KENNDLE CIR 33 DISCHARGING OF FIREARM
202000684271 10-28 20:04 NORWOOD AVE / 44TH ST W 1050 TRAFFIC STOP
202000684261 10-28 20:00 I95 S OFF RAMP / DUNN AVE 1050 TRAFFIC STOP
202000684219 10-28 20:00 1700 HELEN DR 33 DISCHARGING OF FIREARM
202000684177 10-28 19:59 6200 DU-CLAY RD 63 DISPUTE
202000684258 10-28 19:59 PHOENIX AVE / 15TH ST E 1050 TRAFFIC STOP
202000684244 10-28 19:58 PLUM ST / NELSON ST 33 DISCHARGING OF FIREARM
202000684253 10-28 19:57 ATLANTIC BLVD / GIRVIN RD 16 ROAD OBSTRUCTION
202000684250 10-28 19:56 8100 WYOMING ST 3 53 HIT AND RUN CRASH W/FIRE
202000684251 10-28 19:56 5900 ARLINGTON EXPY 1050 TRAFFIC STOP
202000684249 10-28 19:54 13800 MAIN ST N 1050 TRAFFIC STOP
202000684152 10-28 19:53 6300 ARLINGTON EXPY 95ID IDENTITY THEFT
202000684237 10-28 19:51 4900 SUNBEAM RD 63 DISPUTE
202000684104 10-28 19:49 10100 SAN JOSE BLVD 4 AUTO CRASH
202000684240 10-28 19:48 1700 LOGAN ST 27 MENTALLY ILL PERSON
202000684165 10-28 19:48 MORSE AVE / JAMMES RD 54 ILLEGALLY PARKED CAR
202000684007 10-28 19:48 10100 BELLE RIVE BLVD 21R BURGLARY RESIDENCE
202000684212 10-28 19:47 500 BEE BEE DR 13 SUSPICIOUS PERSON
202000683939 10-28 19:46 9100 MERRILL RD 4 AUTO CRASH
202000684234 10-28 19:45 BEAVER ST W / JONES RD 16 ROAD OBSTRUCTION
202000684062 10-28 19:44 8200 WEYBRIDGE DR 1066 CANCEL
202000684235 10-28 19:44 BEACH BLVD / STATION CREEK RD 1050 TRAFFIC STOP
202000684216 10-28 19:44 2600 EDISON AVE 87 DAMAGED PROPERTY
202000684230 10-28 19:43 EDGEWOOD AVE W / BUNKER HILL BLVD 4 AUTO CRASH
202000684228 10-28 19:43 4900 SUNBEAM RD 19 ANIMAL INVESTIGATION
202000684210 10-28 19:43 8300 COLVILLE ST 63 DISPUTE
202000684231 10-28 19:43 2800 UNIVERSITY BLVD W 9 THEFT
202000684227 10-28 19:42 I295 S OFF RAMP / PRITCHARD RD 3 HIT AND RUN CRASH
202000684174 10-28 19:42 11400 BEACH BLVD 63 DISPUTE
202000684223 10-28 19:41 200 CHERRY RIDGE DR 57 PERSON CALLING FOR HELP
202000684222 10-28 19:41 I295 N OFF RAMP / HECKSCHER DR 1 IMPAIRED/DRUNK DRIVER
202000684226 10-28 19:40 LENOX AVE / LANE AVE S 1050 TRAFFIC STOP
202000684224 10-28 19:40 MERRILL RD / TOWNSEND BLVD 1050 TRAFFIC STOP
202000684220 10-28 19:38 SAN PABLO RD S / BEAVER DAM DR 1050 TRAFFIC STOP
202000684218 10-28 19:38 30TH ST W / MARLO ST 1050 TRAFFIC STOP
202000684082 10-28 19:38 11900 BEACH BLVD 4 AUTO CRASH
202000684214 10-28 19:37 5500 AMAZON AVE 3388 DISCHARGING FIREARM AT PERSON
202000684204 10-28 19:36 2900 RAYFORD ST 63 DISPUTE
202000684213 10-28 19:36 UNIV/JUST TER 1050 TRAFFIC STOP
202000684171 10-28 19:35 5900 LENOX AVE 9 THEFT
202000684092 10-28 19:34 11400 BEACH BLVD 14C VANDALISM CONVEYANCE
202000684205 10-28 19:34 5500 UNIVERSITY CLUB BLVD N 1066 CANCEL
202000684197 10-28 19:31 4200 HOMER RD 22 DOMESTIC
202000684203 10-28 19:30 MERRILL RD / JUSTINA RD 1050 TRAFFIC STOP
202000684133 10-28 19:30 7000 NORMANDY BLVD 10J VEHICLE THEFT JUST OCCURRED
202000684090 10-28 19:29 6400 WILSON BLVD 88 ASSAULT
202000684192 10-28 19:28 BEACH BLVD / SAN PABLO RD S 4 53 TRAFFIC CRASH PERSON INJURED
202000684182 10-28 19:27 3500 BEACH BLVD 76 ASSIST OTHER AGENCY
202000684191 10-28 19:27 2300 DOLPHIN AVE 11 ABANDONED VEHICLE
202000684194 10-28 19:27 200 RIVERSIDE AVE 63 DISPUTE
202000684162 10-28 19:26 10200 BEAVER ST W 61 FIGHT
202000684109 10-28 19:25 7100 KARENITA DR 22 DOMESTIC
202000684034 10-28 19:25 8100 103RD ST 4 AUTO CRASH
202000684193 10-28 19:24 UNIVERSITY BLVD W / MT CARMEL TER 1050 TRAFFIC STOP
202000684180 10-28 19:24 13600 NORMANDY BLVD 4 AUTO CRASH
202000684189 10-28 19:22 2200 EDGEWOOD AVE W 4 53 TRAFFIC CRASH PERSON INJURED
202000684188 10-28 19:22 1200 LABELLE ST 1050 TRAFFIC STOP
202000684184 10-28 19:22 1500 MONUMENT RD 57 PERSON CALLING FOR HELP
202000684155 10-28 19:21 ARGYLE FOREST BLVD / RAMPART RD 88 ASSAULT
202000684186 10-28 19:21 3200 ROGERO RD 13 SUSPICIOUS PERSON
202000684183 10-28 19:21 14500 BEACH BLVD 1050 TRAFFIC STOP
202000684181 10-28 19:20 44TH ST E / SEBALD LN 1050 TRAFFIC STOP
202000684178 10-28 19:20 800 FRANKLIN ST 13 SUSPICIOUS PERSON
202000684176 10-28 19:20 NORMANDY BLVD / BICENTENNIAL DR 4 53 TRAFFIC CRASH PERSON INJURED
202000684179 10-28 19:20 BEACH BLVD / EUNICE RD 1050 TRAFFIC STOP
202000684153 10-28 19:19 9700 VALERIE ST 63 DISPUTE
202000684173 10-28 19:19 2100 MAYPORT RD 63 DISPUTE
202000684175 10-28 19:19 GATE PKWY N / SOUTHSIDE BLVD 12 RECKLESS DRIVER
202000684170 10-28 19:18 1ST ST W / MELSON AVE 26C CARDIAC AED
202082019952 10-28 19:17 100 STANLEY RD 1050 TRAFFIC STOP
202000684024 10-28 19:16 1700 CORTEZ RD 6388 DISPUTE WITH ASSAULT
202000684032 10-28 19:15 15900 LEXINGTON PARK BLVD 64 NOISE COMPLAINT
202000684158 10-28 19:14 BLANDING BLVD / YOUNGERMAN CIR E 4 AUTO CRASH
202000684167 10-28 19:12 4TH ST W / MYRTLE AVE N 1050 TRAFFIC STOP
202000684160 10-28 19:11 2600 LOWELL AVE 60 SUICIDE OR ATTEMPT
202000684161 10-28 19:11 100 LAURA ST S 13 SUSPICIOUS PERSON
202000684143 10-28 19:10 200 47TH ST E 2 22 DOMESTIC DISTURBANCE
202000684129 10-28 19:10 6800 TOM THUMB DR 13 SUSPICIOUS PERSON
202000684159 10-28 19:09 28TH ST W / CHASE AVE 1050 TRAFFIC STOP
202000684156 10-28 19:07 5100 LONGLEAF ST 13 SUSPICIOUS PERSON
202000684121 10-28 19:06 4400 STEAMBOAT SPRINGS DR E 13 SUSPICIOUS PERSON
202000684147 10-28 19:06 TULSA RD / BROWARD RD 27 MENTALLY ILL PERSON
202000684151 10-28 19:06 NORMANDY BLVD / US301 ON RAMP 4 53 TRAFFIC CRASH PERSON INJURED
202000684148 10-28 19:06 3800 ST AUGUSTINE RD 4 AUTO CRASH
202000684150 10-28 19:04 2100 DANSON ST 5388 ASSAULT INVOLVING INJURY
202000684070 10-28 19:03 3700 ST JOHNS BLUFF RD S 12 RECKLESS DRIVER
202000684105 10-28 19:03 61ST ST E / MAIN ST N 19 ANIMAL INVESTIGATION
202000684084 10-28 19:02 3400 ARMSTRONG ST 63 DISPUTE
202000684023 10-28 19:02 6700 CINDERELLA RD 86 LOST PROPERTY
202000684138 10-28 19:01 5100 STEPP AVE 37 UNVERIFIED 911 CALL
202000684101 10-28 19:00 5400 LA MOYA AVE 1066 CANCEL
202000684146 10-28 19:00 800 PRUDENTIAL DR 63 DISPUTE
202000684145 10-28 19:00 I295 N OFF RAMP / BLANDING BLVD 1050 TRAFFIC STOP
202000684035 10-28 18:59 2800 SOPHIA ST 27 MENTALLY ILL PERSON
202000684139 10-28 18:59 1800 FAYE RD 76 ASSIST OTHER AGENCY
202000684119 10-28 18:58 6800 RIDGEVIEW AVE 1066 CANCEL
202000684135 10-28 18:56 CLEVELAND RD / CARROLL DR 1050 TRAFFIC STOP
202000684134 10-28 18:55 BLANDING/DUCLAY 96 ASSIST MOTORIST
202000683957 10-28 18:55 1200 8TH ST E 14 VANDALISM
202000684131 10-28 18:54 ADAMS ST W / CLAY ST 27 MENTALLY ILL PERSON
202000684128 10-28 18:54 1600 JARRARD WAY 22 DOMESTIC
202000684106 10-28 18:53 5700 PHILIPS HWY 63 DISPUTE
202000684114 10-28 18:52 10100 ARROWHEAD DR 63 DISPUTE
202000684125 10-28 18:52 LAKE SHORE BLVD / BAYVIEW ELEM AC 88P ASSAULT IN PROGRESS
202000684123 10-28 18:51 11200 ATLANTIC 1050 TRAFFIC STOP
202000684113 10-28 18:51 I295 N OFF RAMP / BLANDING BLVD 13 SUSPICIOUS PERSON
202000683994 10-28 18:50 1100 16TH ST E 1066 CANCEL
202000684118 10-28 18:49 CLEVELAND RD / CLEVELAND TER 1050 TRAFFIC STOP
202000684117 10-28 18:49 WINDSOR PARK DR W / SUTTON PARK DR N 1050 TRAFFIC STOP
202000684116 10-28 18:49 ATLANTIC BLVD / LEON RD 76 ASSIST OTHER AGENCY
202000684031 10-28 18:47 2000 BELVEDERE ST 2288 DOMESTIC DISPUTE WITH/ASSAULT
202000684074 10-28 18:47 1400 24TH ST E 63 DISPUTE
202000684102 10-28 18:47 5800 ATLANTIC BLVD 88 ASSAULT
202000683950 10-28 18:45 1400 24TH ST E 1066 CANCEL
202000684093 10-28 18:44 SAN PABLO RD S / BEACH BLVD 68 CON GAME/FLIM FLAM
202000684097 10-28 18:44 4200 PHILIPS HWY 63 DISPUTE
202000683813 10-28 18:44 300 69TH ST W 50 FOUND/ABANDONED PROPERTY
202000684079 10-28 18:42 400 CENTURY 21 DR 9 THEFT
202000683976 10-28 18:42 2600 ST JOHNS BLUFF RD 3 HIT AND RUN CRASH
202000684099 10-28 18:41 10100 ARROWHEAD DR 5388 ASSAULT INVOLVING INJURY
202000684086 10-28 18:40 2200 JOSE CIR S 12 RECKLESS DRIVER
202000684098 10-28 18:39 I95 S OFF RAMP / EMERSON ST 1050 TRAFFIC STOP
202000684085 10-28 18:38 4900 SUNBEAM RD 21C BURGLARY CONVEYANCE
202000684094 10-28 18:38 100 MAT 96 ASSIST MOTORIST
202000684081 10-28 18:37 SOUTHSIDE BLVD / TOUCHTON RD 3 HIT AND RUN CRASH
202000684091 10-28 18:37 10500 BRIARCLIFF RD E 8 MISSING PERSON
202000684068 10-28 18:36 8100 BUTTERCUP ST 13 SUSPICIOUS PERSON
202000684089 10-28 18:36 EDGEWOOD AVE W / BLOSSOM DR 1050 TRAFFIC STOP
202000683951 10-28 18:35 1000 MUSEUM CIR 0 63 ARMED DISPUTE
202000683907 10-28 18:35 5500 BUFFALO AVE 22 DOMESTIC
202000683883 10-28 18:35 11300 SQUARE ST 22 DOMESTIC
202000684017 10-28 18:34 10900 BEACH BLVD 76 ASSIST OTHER AGENCY
202000684049 10-28 18:34 7900 INDIA AVE 2 63 DISPUTE IMPAIRED/INTOXICATED
202000683967 10-28 18:33 BLANDING BLVD / WESCONNETT BLVD 4 AUTO CRASH
202000683945 10-28 18:32 2700 ECTOR RD N 63 DISPUTE
202000683993 10-28 18:32 3300 20TH ST W 76 ASSIST OTHER AGENCY
202000683991 10-28 18:32 3100 FRANKLIN ST 21R BURGLARY RESIDENCE
202000684004 10-28 18:32 ELLIS RD S / HARROLD AVE 4 AUTO CRASH
202000684073 10-28 18:32 700 CHAFFEE RD S 3 HIT AND RUN CRASH
202000683931 10-28 18:31 OLD KINGS RD S / BAYMEADOWS RD 68 CON GAME/FLIM FLAM
202000684053 10-28 18:30 7900 103RD ST 63 DISPUTE
202000684072 10-28 18:29 UNIVERSITY BLVD W / ST AUGUSTINE RD 76 ASSIST OTHER AGENCY
202000684018 10-28 18:29 BELFORT RD / NEWTON RD 22 DOMESTIC
202000683875 10-28 18:29 12300 NORMANDY BLVD 27 MENTALLY ILL PERSON
202000684012 10-28 18:29 7800 NORMANDY BLVD 63 DISPUTE
202000683968 10-28 18:28 6700 RAMONA BLVD 27 MENTALLY ILL PERSON
202000684015 10-28 18:25 1700 HOLLY OAKS LAKE RD W 22 DOMESTIC
202000683952 10-28 18:24 900 MILLARD CT W 27 MENTALLY ILL PERSON
202000684020 10-28 18:24 2100 HERSCHEL ST 9 THEFT
202000684042 10-28 18:23 7700 BLANDING BLVD 13 SUSPICIOUS PERSON
202000684066 10-28 18:23 4700 WESCONNETT BLVD 1050 TRAFFIC STOP
202000683982 10-28 18:23 700 SKYMARKS DR 76 ASSIST OTHER AGENCY
202000684041 10-28 18:22 LENOX AVE / THOMPSON ST 54 ILLEGALLY PARKED CAR
202000684064 10-28 18:22 BEACH BLVD / SSEXIT BCH RP 4 AUTO CRASH
202000684063 10-28 18:22 6000 MAGGIES CIR 76 ASSIST OTHER AGENCY
202000684059 10-28 18:21 11800 CRUSSELLE DR 9T THEFT (TELESERVE)
202000684060 10-28 18:21 OLD KINGS RD / ZORA ST 4 53 TRAFFIC CRASH PERSON INJURED
202000684058 10-28 18:19 I95 EXPY S 13 SUSPICIOUS PERSON
202000684057 10-28 18:18 11200 ATLANTIC BLVD 3 HIT AND RUN CRASH
202000684056 10-28 18:18 SAN JOSE BLVD / CONGA ST 4 53 TRAFFIC CRASH PERSON INJURED
202000683988 10-28 18:18 I95 N OFF RAMP / I10 W ON RAMP 3 HIT AND RUN CRASH
202000683984 10-28 18:17 I95 N OFF RAMP / PARK ST 3 HIT AND RUN CRASH
202000684054 10-28 18:15 3300 MECCA ST 13 SUSPICIOUS PERSON
202000684013 10-28 18:15 BLANDING BLVD / 103RD ST 12 RECKLESS DRIVER
202000684052 10-28 18:14 I95 S OFF RAMP / JTB E ON RAMP 1050 TRAFFIC STOP
202000683975 10-28 18:14 4100 STARRATT RD 22 DOMESTIC
202000683999 10-28 18:14 200 STATE ST W 9T THEFT (TELESERVE)
202000684050 10-28 18:14 ARMSDALE RD N / DUVAL RD 4 AUTO CRASH
202000684051 10-28 18:13 CECIL COMMERCE CENTER OFF RAMP / 103RD ST 1050 TRAFFIC STOP
202000684048 10-28 18:13 LENOX AVE / CASSAT AVE 96 ASSIST MOTORIST
202000684045 10-28 18:12 I295 S OFF RAMP / COLLINS RD 1050 TRAFFIC STOP
202000683992 10-28 18:12 1600 SAN PABLO RD S 11 ABANDONED VEHICLE
202000684022 10-28 18:11 ATLANTIC BLVD / KINGS AVE 68 CON GAME/FLIM FLAM
202000683173 10-28 18:11 4400 IMESON RD 10 VEHICLE THEFT
202000684037 10-28 18:11 1700 9TH ST W 2288 DOMESTIC DISPUTE WITH/ASSAULT
202000683874 10-28 18:10 BAY ST W / LAURA ST N 68 CON GAME/FLIM FLAM
202000683901 10-28 18:09 8800 BEACH BLVD 3T HIT AND RUN CRASH - TELESERVE
202000683966 10-28 18:09 4300 SUNBEAM RD 63 DISPUTE
202000684005 10-28 18:08 100 BUCKMAN BRG S 16 ROAD OBSTRUCTION
202000683790 10-28 18:08 3600 UNIVERSITY BLVD S 7 DEAD PERSON
202000683998 10-28 18:08 11800 CRUSSELLE DR 9T THEFT (TELESERVE)
202000684028 10-28 18:07 100 US 301 HWY S 10 VEHICLE THEFT
202000684021 10-28 18:07 I295 N ON RAMP / PULASKI RD 16 ROAD OBSTRUCTION
202000683854 10-28 18:04 6700 RYANCE RD 21R BURGLARY RESIDENCE
202000684009 10-28 18:03 6300 PEEPLES LN 9 THEFT
202000683989 10-28 18:03 11100 SAN JOSE BLVD 9 THEFT
202000684010 10-28 18:03 10400 PINEHURST DR 63 DISPUTE
202000684008 10-28 18:02 1600 BROOK FOREST DR 76 ASSIST OTHER AGENCY
202000683937 10-28 18:02 PARENTAL HOME RD / BEACH BLVD 4 AUTO CRASH
202000683969 10-28 18:00 12900 BIGGIN CHURCH RD S 63 DISPUTE
202000683964 10-28 18:00 OLD MIDDLEBURG RD N / RICKER RD 4 AUTO CRASH
202000684006 10-28 17:58 ATLANTIC BLVD / KENSINGTON GARDENS BLVD 1050 TRAFFIC STOP
202000683941 10-28 17:57 7800 JASPER AVE 33 DISCHARGING OF FIREARM
202000683858 10-28 17:55 12900 BROXTON BAY DR 63 DISPUTE
202000683922 10-28 17:54 MCGLOTHLIN ST / LAMBING RD 56 JUVENILE COMPLAINT
202000683996 10-28 17:54 SAN JOSE BLVD / SAN BERNADO DR 54 ILLEGALLY PARKED CAR
202000683995 10-28 17:53 11100 FT CAROLINE RD 4 AUTO CRASH
202000683983 10-28 17:51 I95 N OFF RAMP / ACOSTA EXPY 3 HIT AND RUN CRASH
202000683953 10-28 17:50 6700 SANS SOUCI RD 0 88J ARMED ASSAULT JUST OCCURRED
202000683927 10-28 17:50 1100 CLEVELAND ST 14B VANDALISM BUSINESS
202000683985 10-28 17:50 1800 EDGEWOOD AVE W 4 AUTO CRASH
202000683592 10-28 17:50 2200 UNIVERSITY BLVD 63 DISPUTE
202082019946 10-28 17:49 400 ROYAL PALMS DR 50 FOUND/ABANDONED PROPERTY
202000683986 10-28 17:49 20TH ST N / BEACH BLVD 1050 TRAFFIC STOP
202000683960 10-28 17:47 100 FULLER WARREN BRG N 3 HIT AND RUN CRASH
202000683979 10-28 17:46 I10 W OFF RAMP / CASSAT AVE 96 ASSIST MOTORIST
202000683980 10-28 17:46 4000 RICHMOND PARK DR E 1050 TRAFFIC STOP
202000012982 10-28 17:46 12200 ALUMNI DR 9 THEFT
202000683977 10-28 17:44 NEW CT E / NEW CT S 1050 TRAFFIC STOP
202000683973 10-28 17:43 NORMANDY BLVD / CECIL COMMERCE CENTER PKWY OFF RAMP 4 53 TRAFFIC CRASH PERSON INJURED
202000683895 10-28 17:43 5600 EDENFIELD RD 63 DISPUTE
202000683723 10-28 17:43 900 ARLINGTON RD N 63 DISPUTE
202000683974 10-28 17:42 2700 BEAVER ST W 1050 TRAFFIC STOP
202000683972 10-28 17:41 2100 DUNN AVE 63 DISPUTE
202000683940 10-28 17:41 10200 MANORVILLE DR 2288 DOMESTIC DISPUTE WITH/ASSAULT
202000683920 10-28 17:39 9000 DERRICKSON DR 1066 CANCEL
202000683921 10-28 17:39 10400 AGAVE RD 19 ANIMAL INVESTIGATION
202000683965 10-28 17:38 2700 WOOLERY DR 1050 TRAFFIC STOP
202092024887 10-28 17:37 5300 PARK ST 14 VANDALISM
202000683962 10-28 17:37 KONA AVE / BOWLAN ST N 1050 TRAFFIC STOP
202000683961 10-28 17:37 5100 BEACH BLVD 1050 TRAFFIC STOP
202000683843 10-28 17:36 SOUTHSIDE BLVD / OLD BAYMEADOWS RD 4 AUTO CRASH
202000683958 10-28 17:36 2800 LOWELL AVE 61 FIGHT
202000683956 10-28 17:35 10900 LEM TURNER RD 1050 TRAFFIC STOP
202000683857 10-28 17:35 ROOSEVELT BLVD / MCDUFF AVE S 4 AUTO CRASH
202000683919 10-28 17:35 6000 WATEREDGE DR S 39 WATER/VESSEL ACCIDENT
202000683861 10-28 17:33 7900 BLANDING BLVD 63 DISPUTE
202000683906 10-28 17:32 5300 PARK ST 14B VANDALISM BUSINESS
202000683910 10-28 17:31 400 CENTURY 21 DR 13 SUSPICIOUS PERSON
202000683934 10-28 17:31 1300 FAIRFAX ST 0 63 ARMED DISPUTE
202000683946 10-28 17:30 BEACH BLVD / HUFFMAN BLVD 1050 TRAFFIC STOP
202000683869 10-28 17:30 I295 N ON RAMP / BEACH BLVD 0 13 ARMED SUSPICIOUS PERSON
202000683935 10-28 17:27 7TH ST W / EAVERSON ST 1050 TRAFFIC STOP
202000683926 10-28 17:27 100 MATHEWS BRG W 3T HIT AND RUN CRASH - TELESERVE
202000683904 10-28 17:27 600 CASSAT AVE 63 DISPUTE
202000683933 10-28 17:27 ACME ST / ALTON AVE 1050 TRAFFIC STOP
202000683929 10-28 17:26 1200 BELLE GLADE CIR 1050 TRAFFIC STOP
202000683928 10-28 17:25 2400 MCQUADE ST 73 DRUG INVESTIGATION
202000683867 10-28 17:24 LENOX AVE / CASSAT AVE 4 63 CRASH INVOLVING DISPUTE
202000683925 10-28 17:24 BEACH BLVD / JAMES ST 1050 TRAFFIC STOP
202000683917 10-28 17:24 6400 POTTSBURG DR 39 WATER/VESSEL ACCIDENT
202000683923 10-28 17:23 SB LINE/BEAVER 12 RECKLESS DRIVER
202000683915 10-28 17:22 2200 5TH AVE 63 DISPUTE
202000683825 10-28 17:21 I10 EXPY W / I95 S OFF RAMP 4 AUTO CRASH
202000683918 10-28 17:21 11000 BEACH BLVD 38 TRAFFIC ASSIGNMENT
202000683916 10-28 17:20 BEAVER ST W / MCDUFF AVE N 1050 TRAFFIC STOP
202000683898 10-28 17:20 7900 LORIENT DR 9 THEFT
202000683866 10-28 17:19 2200 HAMILTON ST 9 THEFT
202000683913 10-28 17:19 ATLANTIC BLVD / CARAVAN TRL 1050 TRAFFIC STOP
202000683833 10-28 17:18 7900 103RD ST 68 CON GAME/FLIM FLAM
202000683909 10-28 17:18 7300 LINDA DR 22 DOMESTIC
202000683911 10-28 17:18 NOCATEE/VALLEY RIDGE 12 RECKLESS DRIVER
202000683886 10-28 17:17 8400 SOUTHSIDE BLVD 76 ASSIST OTHER AGENCY
202000683908 10-28 17:17 SAN JOSE BLVD / MANDARIN MEADOWS DR 1050 TRAFFIC STOP
202000683827 10-28 17:15 1100 MOHAWK ST 22 DOMESTIC
202000683891 10-28 17:15 1000 UNIVERSITY BLVD N 4 AUTO CRASH
202000683897 10-28 17:15 10900 LEM TURNER RD 14CT VANDALISM CONVEYANCE TELESERVE
202000683893 10-28 17:15 1400 23RD ST W 0 88 ARMED ASSAULT
202000683903 10-28 17:14 7300 ATLANTIC BLVD 1050 TRAFFIC STOP
202000683899 10-28 17:14 800 FRANKLIN ST 2288 DOMESTIC DISPUTE WITH/ASSAULT
202000683884 10-28 17:13 1400 RIVERPLACE BLVD 63 DISPUTE
202000683890 10-28 17:12 4700 PHILIPS HWY 76 ASSIST OTHER AGENCY
202082019944 10-28 17:11 1100 ATLANTIC BLVD 21C BURGLARY CONVEYANCE
202000683879 10-28 17:10 BAY ST W / LAURA ST N 4 AUTO CRASH
202000683887 10-28 17:10 CENTURY 21 DR / VIRGO ST 1050 TRAFFIC STOP
202000683885 10-28 17:09 MARTIN LUTHER KING JR PKWY / CANAL ST N 1050 TRAFFIC STOP
202000683846 10-28 17:08 6700 103RD ST 63 DISPUTE
202000683880 10-28 17:07 11900 SAN JOSE BLVD 38 TRAFFIC ASSIGNMENT
202000683878 10-28 17:07 3800 CARMICHAEL AVE 1050 TRAFFIC STOP
202000683806 10-28 17:06 7500 MOSSY ROCK CIR 21R BURGLARY RESIDENCE
202000683877 10-28 17:05 NOCATEE/VALLEY RIDG45 12 RECKLESS DRIVER
202000683876 10-28 17:05 700 LIBERTY ST N 73 DRUG INVESTIGATION
202000683832 10-28 17:05 9900 DEERCREEK CLUB RD E 22 DOMESTIC
202000683740 10-28 17:04 5500 UNIVERSITY CLUB BLVD N 63 DISPUTE
202000683872 10-28 17:03 2100 FIGARO LN 1050 TRAFFIC STOP
202000683868 10-28 17:03 SHINDLER DR / 103RD ST 13 SUSPICIOUS PERSON
202000683701 10-28 17:03 2900 JUSTINA RD 22 DOMESTIC
202000683820 10-28 17:03 16500 VILLAGE GREEN DR N 11 ABANDONED VEHICLE
202000683864 10-28 17:01 900 DUNN AVE 63 DISPUTE
202000683809 10-28 17:01 9100 GREENLEAF RD 5388 ASSAULT INVOLVING INJURY
202000683860 10-28 17:01 1700 LOGAN ST 27 MENTALLY ILL PERSON
202000683863 10-28 17:00 EDGEWOOD AVE S / COLLEGE ST 4 53 TRAFFIC CRASH PERSON INJURED
202082019941 10-28 16:58 AMBERJACK LN / BONITA RD 1050 TRAFFIC STOP
202000683837 10-28 16:58 1000 UNIVERSITY BLVD N 9P THEFT IN PROGRESS
202000683840 10-28 16:57 POWERS AVE / OLD KINGS RD S 16 ROAD OBSTRUCTION
202000683804 10-28 16:56 NORMANDY VILLAGE PKWY / NORMANDY BLVD 16 ROAD OBSTRUCTION
202000683859 10-28 16:56 ACME ST / ATLANTIC BLVD 1050 TRAFFIC STOP
202000683855 10-28 16:56 I295 N OFF RAMP / ST JOHNS BLUFF RD S 4 AUTO CRASH
202000683856 10-28 16:55 ACME ST / BERRY AVE 1050 TRAFFIC STOP
202000683742 10-28 16:54 200 27TH ST W 22 DOMESTIC
202000683853 10-28 16:54 BLANDING BLVD / YOUNGERMAN CIR E 4 53 TRAFFIC CRASH PERSON INJURED
202082019940 10-28 16:52 200 MAYPORT RD 1050 TRAFFIC STOP
202000683778 10-28 16:52 100 ODELL ST 22 DOMESTIC
202000683851 10-28 16:52 1300 TYLER ST 4 AUTO CRASH
202000683847 10-28 16:51 4900 BEACH BLVD 1050 TRAFFIC STOP
202000683784 10-28 16:50 500 MONROE ST E 63 DISPUTE
202000683845 10-28 16:50 7200 W 20THS 1050 TRAFFIC STOP
202000683777 10-28 16:48 10700 KUSAIE DR S 63 DISPUTE
202000683841 10-28 16:48 3200 REMINGTON ST 73 DRUG INVESTIGATION
202000683792 10-28 16:48 1500 LANE AVE S 33 DISCHARGING OF FIREARM
202000683839 10-28 16:48 4300 WILLIAMSBURG AVE 1066 CANCEL
202000683816 10-28 16:46 5400 101ST ST 95ID IDENTITY THEFT
202000683789 10-28 16:46 3600 BRENTWOOD BLVD 76 ASSIST OTHER AGENCY
202000683730 10-28 16:45 1900 PARENTAL HOME RD 21R BURGLARY RESIDENCE
202000683299 10-28 16:45 SAN PABLO RD S / JTB W ON RAMP 16 ROAD OBSTRUCTION
202000683218 10-28 16:45 JTB E OFF RAMP / HODGES BLVD 16 ROAD OBSTRUCTION
202000683836 10-28 16:45 AIR/DUVAL 1050 TRAFFIC STOP
202000683091 10-28 16:44 I295 N OFF RAMP / JTB E ON RAMP 16 ROAD OBSTRUCTION
202000683007 10-28 16:44 100 BUCKMAN BRG N 16 ROAD OBSTRUCTION
202000683834 10-28 16:43 NOCATEE/COUNTY LINE 12 RECKLESS DRIVER
202000683783 10-28 16:43 500 BAY ST E 1066 CANCEL
202000683831 10-28 16:43 JTB E OFF RAMP / SAN PABLO RD S 16 ROAD OBSTRUCTION
202000683828 10-28 16:43 600 ESCAMBIA ST 11 ABANDONED VEHICLE
202000683823 10-28 16:41 1300 JAMAICA RD E 4 63 CRASH INVOLVING DISPUTE
202000683814 10-28 16:40 14000 CLARIDGE RD N 76 ASSIST OTHER AGENCY
202000683822 10-28 16:39 3900 ST JOHNS AVE 9T THEFT (TELESERVE)
202000683812 10-28 16:39 10800 BIRCHARD LN 63 DISPUTE
202000683767 10-28 16:38 1800 DUNN AVE 63 DISPUTE
202000683821 10-28 16:38 BEACH BLVD / KERNAN BLVD EXIT BEACH BLVD RP 1050 TRAFFIC STOP
202000683819 10-28 16:37 2200 PHILIPS HWY 26EB PERSON WITH EXTREME BEHAVIOR
202000683780 10-28 16:37 1100 PANUCO AVE N 9T THEFT (TELESERVE)
202000683811 10-28 16:36 5500 TIMUQUANA RD 76 ASSIST OTHER AGENCY
202000683805 10-28 16:36 6200 PINELOCK DR 64 NOISE COMPLAINT
202000683694 10-28 16:35 UNIVERSITY BLVD N / FT CAROLINE RD 13 SUSPICIOUS PERSON
202000683817 10-28 16:35 NOCATEE/COUNTY LINE 12 RECKLESS DRIVER
202000683815 10-28 16:35 2700 W 20TH ST 1050 TRAFFIC STOP
202000683801 10-28 16:34 SAN MARCO BLVD / LASALLE ST 4 AUTO CRASH
202000683803 10-28 16:34 7800 GREGORY DR 63 DISPUTE
202000683733 10-28 16:33 6900 AZALEA GROVE DR 4 AUTO CRASH
202000683810 10-28 16:33 400 CENTURY 21 DR 1066 CANCEL
202000012979 10-28 16:33 100 U N F DR 96 ASSIST MOTORIST
202000683763 10-28 16:32 4400 TOWN CENTER PKWY 4 AUTO CRASH
202000683564 10-28 16:31 6300 103RD ST 9 THEFT
202000683779 10-28 16:31 HARTLEY RD / OLD ST AUGUSTINE RD 4 AUTO CRASH
202000683728 10-28 16:31 200 LAURA ST N 0 63 ARMED DISPUTE
202000683771 10-28 16:31 100 ODELL ST 22 DOMESTIC
202000683773 10-28 16:30 100 JEFFERSON RD 63 DISPUTE
202000683808 10-28 16:30 8800 LIBERTY RIDGE DR 63 DISPUTE
202000683781 10-28 16:29 900 ACAPULCO RD 22 DOMESTIC
202000012978 10-28 16:29 100 U N F DR 60 SUICIDE OR ATTEMPT
202000683794 10-28 16:28 11900 BEACH BLVD 63 DISPUTE
202000683802 10-28 16:27 8000 BEACH BLVD 38 TRAFFIC ASSIGNMENT
202000683785 10-28 16:27 1000 ELLIS RD S 37 UNVERIFIED 911 CALL
202000683640 10-28 16:26 5600 BARNHILL DR 88 ASSAULT
202000683799 10-28 16:26 AIRPORT RD / DUVAL RD 1050 TRAFFIC STOP
202000683796 10-28 16:25 ATLANTIC BLVD / KINGS AVE 76 ASSIST OTHER AGENCY
202000683760 10-28 16:24 12900 ATLANTIC BLVD 5582 HOLDING ONE FOR SHOPLIFTING
202000683741 10-28 16:24 10900 MINDANAO DR S 22 DOMESTIC
202000683795 10-28 16:24 1500 LANE AVE S 3388 DISCHARGING FIREARM AT PERSON
202000683682 10-28 16:22 7100 ZONA AVE 76 ASSIST OTHER AGENCY
202082019937 10-28 16:22 1100 ATLANTIC BLVD 10 VEHICLE THEFT
202000683793 10-28 16:21 3500 NEW KINGS RD 1050 TRAFFIC STOP
202000683756 10-28 16:20 6200 TERRY RD 21CT BURGLARY CONVEYANCE TELESERVE
202000683788 10-28 16:20 NOCATEE PKWY / VALLEY RIDGE BLVD EXIT NOCATEE PY RP 12 RECKLESS DRIVER
202000683786 10-28 16:19 NORMANDY BLVD / LAMPLIGHTER LN 56 JUVENILE COMPLAINT
202000683787 10-28 16:19 7900 PIPIT AVE 22 DOMESTIC
202092024885 10-28 16:17 1400 FRANKLIN ST 38 TRAFFIC ASSIGNMENT
202082019936 10-28 16:15 1400 MAYPORT RD 4 AUTO CRASH
202000683769 10-28 16:15 I10 EXPY E / I295 S OFF RAMP 16 ROAD OBSTRUCTION
202000683776 10-28 16:14 14300 DEERFIELD LN 11 ABANDONED VEHICLE
202000683729 10-28 16:14 1800 HAWAII DR E 73 DRUG INVESTIGATION
202000683774 10-28 16:13 AIRPORT RD / DUVAL RD 1050 TRAFFIC STOP
202000683770 10-28 16:10 1200 KINGS RD 63 DISPUTE
202000683749 10-28 16:10 CENTURY ST / BERRY AVE 73 DRUG INVESTIGATION
202000683737 10-28 16:08 4800 POST ST 63 DISPUTE
202000683499 10-28 16:08 14500 WOODFIELD CIR N 22 DOMESTIC
202082019934 10-28 16:07 2700 MAYPORT RD 1050 TRAFFIC STOP
202000683738 10-28 16:06 1100 LANE AVE S 9 THEFT
202000683762 10-28 16:06 5700 SILVER PLZ 8 MISSING PERSON
202000683710 10-28 16:06 8000 CAHOON DR 4 AUTO CRASH
202000683764 10-28 16:06 1700 BEAVER ST W 38 TRAFFIC ASSIGNMENT
202000683758 10-28 16:03 11900 MANDARIN RD 22 DOMESTIC
202000683718 10-28 16:03 1100 AIRPORT RD 63 DISPUTE
202000683759 10-28 16:02 13000 OLD ST AUGUSTINE RD 38 TRAFFIC ASSIGNMENT
202000683755 10-28 16:02 100 DAMES POINT BRG N 60 SUICIDE OR ATTEMPT
202000683698 10-28 16:02 13700 DEVAN LEE DR E 22 DOMESTIC
202000683754 10-28 16:01 3000 EDGEWOOD AVE W 9P THEFT IN PROGRESS
202000683752 10-28 16:01 EDGEWOOD AVE N / 5TH ST W 3 HIT AND RUN CRASH
202000683753 10-28 16:01 CINDERBED DR / CROSSTIE RD W 63 DISPUTE
202000683750 10-28 16:00 RIBAULT AVE / TROUT RIVER BLVD 88J ASSAULT JUST OCCURRED
202000683744 10-28 16:00 10200 HAVERFORD RD 8 27 MISSING MENTALLY ILL
202000683497 10-28 15:58 12900 BIGGIN CHURCH RD S 63 DISPUTE
202000683544 10-28 15:58 1200 RIVER BANK CT 21R BURGLARY RESIDENCE
202000683745 10-28 15:57 5600 COLLINS RD 1050 TRAFFIC STOP
202000683687 10-28 15:57 10900 LEM TURNER RD 28 DELIVER MESSAGE
202082019933 10-28 15:56 DUTTON ISLAND RD E / FRANCIS AVE 1050 TRAFFIC STOP
202000683709 10-28 15:55 11300 QUAILHOLLOW DR 2288 DOMESTIC DISPUTE WITH/ASSAULT
202000683734 10-28 15:51 4200 PHILIPS HWY 13 SUSPICIOUS PERSON
202000683732 10-28 15:51 3600 ST JOHNS AVE 95 FRAUD/FORGED (CHECK, ID, RX)
202000683721 10-28 15:50 MYRTLE AVE S / FOREST ST 3 HIT AND RUN CRASH
202000683731 10-28 15:50 4500 BELFORT 12 RECKLESS DRIVER
202000683726 10-28 15:48 3300 20TH ST W 27 MENTALLY ILL PERSON
202000683727 10-28 15:47 ROOSEVELT BLVD / MCDUFF AVE S 1050 TRAFFIC STOP
202000683716 10-28 15:47 5400 ORTEGA BLVD 3 HIT AND RUN CRASH
202000683674 10-28 15:46 2900 CORONET LN 73 DRUG INVESTIGATION
202000683722 10-28 15:46 BISCAYNE BLVD / DUVAL RD 96 ASSIST MOTORIST
202000683720 10-28 15:44 2800 SEVILLE CT 21C BURGLARY CONVEYANCE
202000683594 10-28 15:43 1700 LOGAN ST 63 DISPUTE
202000683715 10-28 15:42 I10 EXPY W / ROOSEVELT EXPY 4 53 TRAFFIC CRASH PERSON INJURED
202000683714 10-28 15:42 NEW KINGS RD / I295 N ON RAMP 1050 TRAFFIC STOP
202000683523 10-28 15:41 4900 TOWN CENTER PKWY 63 DISPUTE
202000683713 10-28 15:41 SOUTH/ARLIN 16 ROAD OBSTRUCTION
202082019931 10-28 15:39 800 SEMINOLE RD 19 ANIMAL INVESTIGATION
202000683550 10-28 15:38 9500 REGENCY SQUARE BLVD N 63 DISPUTE
202000683706 10-28 15:36 I10 AT MCDUFF AVE 96 ASSIST MOTORIST
202000683441 10-28 15:35 8000 PHILIPS HWY 9 THEFT
202000683673 10-28 15:35 1900 13TH ST W 95T FRAUD/FORGED (CHECK, ID, RX) (TELESERVE)
202000683703 10-28 15:34 NORMANDY BLVD / BICENTENNIAL DR 1050 TRAFFIC STOP
202000683670 10-28 15:34 8800 LIBERTY RIDGE DR 9 THEFT
202000683700 10-28 15:32 700 LIBERTY ST N 73 DRUG INVESTIGATION
202082019930 10-28 15:32 800 PLAZA 1050 TRAFFIC STOP
202000683672 10-28 15:31 5900 UNIVERSITY BLVD W 9 THEFT
202000683691 10-28 15:30 3800 RODBY DR 95 FRAUD/FORGED (CHECK, ID, RX)
202000683695 10-28 15:30 4500 SAN PABLO RD S 4 AUTO CRASH
202082019929 10-28 15:28 1700 SEMINOLE RD 1050 TRAFFIC STOP
202000683692 10-28 15:28 2000 EDGEWOOD AVE W 1050 TRAFFIC STOP
202000683626 10-28 15:28 3300 ROYAL PALM DR 76 ASSIST OTHER AGENCY
202000683659 10-28 15:27 MAIN ST N / I295 N OFF RAMP 27 MENTALLY ILL PERSON
202000683690 10-28 15:27 OLD MIDDLEBURG RD N / GREGORY DR 4 AUTO CRASH
202000683688 10-28 15:27 13700 BEACH BLVD 4 53 TRAFFIC CRASH PERSON INJURED
202000683654 10-28 15:26 13700 OLD ST AUGUSTINE RD 12 RECKLESS DRIVER
202000683686 10-28 15:26 1000 15TH ST W 23I53 ROBBERY INDIVIDUAL W/INJURY
202000683503 10-28 15:25 100 LIMANN RD 88P ASSAULT IN PROGRESS
202000683685 10-28 15:24 103RD/RICKER 1050 TRAFFIC STOP
202000683681 10-28 15:24 1600 ANTLER TRL N 11 ABANDONED VEHICLE
202082019928 10-28 15:24 200 SEMINOLE RD 1050 TRAFFIC STOP
202000683677 10-28 15:24 COMMONWEALTH AVE / ST CLAIR ST 1050 TRAFFIC STOP
202000683671 10-28 15:20 I95 S OFF RAMP / CHURCH ST W 3 HIT AND RUN CRASH
202000683668 10-28 15:20 5700 LENOX AVE 76 ASSIST OTHER AGENCY
202000683662 10-28 15:20 3500 PARK ST 20 PROWLER
202000683669 10-28 15:20 8100 HOLLYRIDGE RD 1050 TRAFFIC STOP
202000683667 10-28 15:19 NORMANDY BLVD / GRANVILLE RD 1050 TRAFFIC STOP
202000683617 10-28 15:19 8600 DARLINGTON DR 95ID IDENTITY THEFT
202000683665 10-28 15:18 ASHLEY ST E / NEWNAN ST N 13 SUSPICIOUS PERSON
202000683586 10-28 15:18 200 STATE ST E 14B VANDALISM BUSINESS
202000683663 10-28 15:17 2700 W 20TH ST 1050 TRAFFIC STOP
202000683661 10-28 15:17 BEACH BLVD / KILLARNEY DR 1050 TRAFFIC STOP
202082019927 10-28 15:16 200 SEMINOLE RD 1050 TRAFFIC STOP
202000683645 10-28 15:16 UNIVERSITY BLVD W / PHILIPS HWY 16 ROAD OBSTRUCTION
202000683646 10-28 15:15 6900 PLEASURE WAY 22 DOMESTIC
202000683657 10-28 15:14 500 CHAFFEE POINT BLVD 1066 CANCEL
202000683608 10-28 15:14 2800 WONDERWOOD LN 49 REPORT TO HOSPITAL
202000683632 10-28 15:13 5700 SPRING PARK RD 95ID IDENTITY THEFT
202000683580 10-28 15:12 11200 BEACH BLVD 73 DRUG INVESTIGATION
202000683650 10-28 15:12 I95 N OFF RAMP / ACOSTA EXPY 1050 TRAFFIC STOP
202000683649 10-28 15:11 NORMANDY BLVD / GRANVILLE RD 1050 TRAFFIC STOP
202000683648 10-28 15:11 ATL/WOOD 1050 TRAFFIC STOP
202082019926 10-28 15:11 SHERRY DR / STURDIVANT AVE 1050 TRAFFIC STOP
202000683643 10-28 15:10 1300 MONUMENT RD 4 AUTO CRASH
202000683553 10-28 15:09 8500 BEACH BLVD 9 THEFT
202000683605 10-28 15:08 7600 SOUTHSIDE BLVD 21C BURGLARY CONVEYANCE
202000683474 10-28 15:08 7600 103RD ST 9 THEFT
202082019925 10-28 15:07 SAILFISH DR E / ATLANTIC BLVD 1050 TRAFFIC STOP
202000683639 10-28 15:07 ARLINGTON XY SERVICE RD / CESERY BLVD 4 53 TRAFFIC CRASH PERSON INJURED
202000683634 10-28 15:06 100 DAMES POINT BRG S 16 ROAD OBSTRUCTION
202000683627 10-28 15:05 1000 HURON ST 76 ASSIST OTHER AGENCY
202000683589 10-28 15:04 5500 JAMMES RD 9 THEFT
202000683629 10-28 15:04 100 RIVERSIDE AVE 68 CON GAME/FLIM FLAM
202000683569 10-28 15:04 7900 INDIA AVE 14R VANDALISM RESIDENCE
202000683562 10-28 15:03 7500 BEACH BLVD 27 MENTALLY ILL PERSON
202000683633 10-28 15:03 PEARL ST N / 44TH ST W 1050 TRAFFIC STOP
202000683463 10-28 15:03 4400 ANSON PL E 88 ASSAULT
202000683630 10-28 15:02 12700 LANIER RD 76 ASSIST OTHER AGENCY
202000683631 10-28 15:02 YEOO/BEAV 1050 TRAFFIC STOP
202082019924 10-28 15:02 800 SEMINOLE RD 9 THEFT
202000683625 10-28 15:01 8100 HOLLYRIDGE RD 1050 TRAFFIC STOP
202000683622 10-28 15:00 13TH/PULMNA 1050 TRAFFIC STOP